Location: Plainartige
(45.6866°N, 1.7993°E)
Time: 19:02:09
(UTC+00:00)

RS-15 - Pass Details

Date: 05 July 2022
Orbit: 1881 x 2163 km, 64.8° (Epoch: 11 August)

Event Time Altitude Azimuth Distance (km) Brightness Sun altitude
Rises 01:45:17 0° 316° (NW) 5,689 10.7 -17.3°
Reaches altitude 10° 01:51:16 10° 294° (WNW) 4,654 10.0 -16.8°
Maximum altitude 01:56:30 14° 268° (W) 4,283 9.5 -16.4°
Enters shadow 02:01:19 11° 243° (WSW) 4,525 9.4 -16.0°
